sat.trackr.live / text

‹ back to catalog

UNKNOWN

NORAD 89055

UNKNOWN UNKNOWN UNKNOWN

§ Identity

Operator
Country
Launch date
Launch site
Launch vehicle
Mass (kg)
RCS (m²)

External: N2YO · Heavens-Above

§ Orbital elements

Epoch: 2026-09-10T05:53:56.292288Z

Period
116.16 min
Inclination
101.5830°
Eccentricity
0.0031265
Mean motion
12.39650008 rev/d
Perigee alt
1,483.4 km
Apogee alt
1,532.7 km
Semi-major
7,886.2 km
B*
5.7973e-4
RAAN
259.0727°
Arg perigee
21.3392°
Mean anomaly
338.8969°
Rev number
57,937

§ Raw data

UNKNOWN1 89055U          26253.24579042  .00000035  00000+0  57973-3 0  99992 89055 101.5830 259.0727 0031265  21.3392 338.8969 12.39650008579377

JSON: /api/v1/satellites/89055 · /tle

For live sub-satellite position, see the globe view (requires WebGL).

§ Visibility from observer

Set your observer location to see the next 7 days of passes ≥ 10°. The values pass through the URL so the page stays shareable.

No JS? Fill the form by hand. The geolocation button needs JavaScript.